BEIDOU-3 IGSO-3 (C40)

Last updated on Thu Nov 21 2024 00:03:16 GMT+0000 (Coordinated Universal Time)

1 44709U 19073A 24325.30562826 -.00000198 00000+0 00000+0 0 9999 2 44709 55.7883 287.0690 0040286 190.8200 169.0360 1.00254601 18704
UTC large
Height (km)
Speed (km/s)
/
Latitude / Longitude
Inclination (degrees)
Orbital Period (minutes)
Azimuth
Elevation
Range (km)
Doppler Factor

Next 0 passes for location: London (51.5072 / 0.1276)

Sorry there are no passes over London.